Location: Pedholt
(56.0260°N, 10.2097°E)
Time: 22:11:42
(UTC+00:00)

A-11 Canister half - Pass Details

Date: 03 August 2021
Orbit: 1515 x 1685 km, 47.2° (Epoch: 19 September)

Event Time Altitude Azimuth Distance (km) Brightness Sun altitude
Rises 16:05:09 0° 223° (SW) 4,779 12.3 25.5°
Reaches altitude 10° 16:08:28 10° 216° (SW) 3,820 11.8 25.0°
Maximum altitude 16:17:10 38° 153° (SSE) 2,315 10.0 23.8°
Drops below altitude 10° 16:26:07 10° 90° (E) 3,934 10.6 22.5°
Sets 16:29:34 0° 83° (E) 4,935 11.1 22.0°
